| time (UTC) | temp F | wind direction | speed knots | gust knots | rain 1hr in | rain 24hr in | rain mn in | humidity % | barometer mb |
| 20260504081748 | 44 | 346 | 0.0 | 0.9 | 0.00 | 0.00 | 0.00 | 66 | 1016.0 |
| 20260504081244 | 44 | 318 | 0.0 | 0.0 | 0.00 | 0.00 | 0.00 | 66 | 1016.0 |
| 20260504080741 | 45 | 324 | 0.0 | 0.0 | 0.00 | 0.00 | 0.00 | 64 | 1016.1 |
| 20260504080237 | 45 | 316 | 0.0 | 0.0 | 0.00 | 0.00 | 0.00 | 64 | 1016.0 |
| 20260504070205 | 46 | 310 | 0.0 | 0.0 | 0.00 | 0.00 | 0.00 | 66 | 1016.0 |
| 20260504060125 | 44 | 320 | 0.0 | 0.0 | 0.00 | 0.00 | 0.00 | 71 | 1015.9 |
| 20260504050554 | 48 | 310 | 1.7 | 1.7 | 0.00 | 0.00 | 0.00 | 59 | 1016.2 |
| 20260504045547 | 47 | 323 | 0.0 | 0.0 | 0.00 | 0.00 | 0.00 | 62 | 1016.0 |
| 20260504045043 | 47 | 315 | 0.0 | 0.0 | 0.00 | 0.00 | 0.00 | 62 | 1016.2 |
| 20260504044540 | 47 | 291 | 0.0 | 0.0 | 0.00 | 0.00 | 0.00 | 61 | 1016.2 |
| 20260504044037 | 48 | 320 | 0.0 | 0.0 | 0.00 | 0.00 | 0.00 | 59 | 1016.1 |
| 20260504043534 | 48 | 308 | 0.0 | 0.0 | 0.00 | 0.00 | 0.00 | 59 | 1015.8 |
| 20260504043032 | 48 | 319 | 0.0 | 0.0 | 0.00 | 0.00 | 0.00 | 60 | 1015.9 |
| 20260504042529 | 48 | 317 | 0.0 | 0.0 | 0.00 | 0.00 | 0.00 | 59 | 1015.9 |
| 20260504042026 | 48 | 324 | 0.0 | 0.0 | 0.00 | 0.00 | 0.00 | 57 | 1016.0 |
| 20260504041521 | 48 | 319 | 0.0 | 0.9 | 0.00 | 0.00 | 0.00 | 58 | 1016.1 |
| 20260504041017 | 48 | 322 | 0.0 | 0.0 | 0.00 | 0.00 | 0.00 | 59 | 1016.1 |
| 20260504040515 | 49 | 318 | 0.0 | 0.0 | 0.00 | 0.00 | 0.00 | 57 | 1016.0 |
| 20260504040012 | 49 | 318 | 0.0 | 0.0 | 0.00 | 0.00 | 0.00 | 56 | 1016.0 |
| 20260504035509 | 49 | 308 | 0.9 | 0.9 | 0.00 | 0.00 | 0.00 | 57 | 1015.9 |
| 20260504035005 | 50 | 308 | 0.0 | 0.0 | 0.00 | 0.00 | 0.00 | 58 | 1015.9 |
| 20260504034503 | 49 | 306 | 0.9 | 0.9 | 0.00 | 0.00 | 0.00 | 57 | 1015.6 |
| 20260504033959 | 50 | 318 | 0.0 | 0.0 | 0.00 | 0.00 | 0.00 | 56 | 1015.6 |
| 20260504033457 | 50 | 229 | 1.7 | 1.7 | 0.00 | 0.00 | 0.00 | 57 | 1015.8 |
| 20260504032954 | 50 | 294 | 0.9 | 0.9 | 0.00 | 0.00 | 0.00 | 56 | 1015.6 |
| 20260504032451 | 50 | 305 | 0.9 | 0.9 | 0.00 | 0.00 | 0.00 | 56 | 1015.8 |
| 20260504031948 | 50 | 315 | 0.0 | 0.0 | 0.00 | 0.00 | 0.00 | 55 | 1015.8 |
| 20260504031445 | 50 | 308 | 0.0 | 0.0 | 0.00 | 0.00 | 0.00 | 54 | 1015.6 |
| 20260504030941 | 50 | 321 | 0.0 | 0.0 | 0.00 | 0.00 | 0.00 | 54 | 1015.4 |
| 20260504030438 | 51 | 323 | 0.0 | 0.0 | 0.00 | 0.00 | 0.00 | 53 | 1015.6 |
| 20260504025934 | 51 | 313 | 0.0 | 0.0 | 0.00 | 0.00 | 0.00 | 54 | 1015.7 |
| 20260504025431 | 51 | 312 | 0.9 | 0.9 | 0.00 | 0.00 | 0.00 | 53 | 1015.5 |
| 20260504024929 | 50 | 295 | 0.0 | 0.0 | 0.00 | 0.00 | 0.00 | 54 | 1015.5 |
| 20260504024426 | 50 | 316 | 0.0 | 0.9 | 0.00 | 0.00 | 0.00 | 56 | 1015.5 |
| 20260504023922 | 51 | 304 | 0.0 | 0.9 | 0.00 | 0.00 | 0.00 | 56 | 1015.6 |
| 20260504023419 | 51 | 304 | 0.0 | 0.0 | 0.00 | 0.00 | 0.00 | 54 | 1015.6 |
| 20260504022914 | 51 | 320 | 0.0 | 0.0 | 0.00 | 0.00 | 0.00 | 53 | 1015.6 |
| 20260504022411 | 51 | 324 | 0.0 | 0.0 | 0.00 | 0.00 | 0.00 | 52 | 1015.3 |
| 20260504021908 | 51 | 308 | 0.0 | 0.0 | 0.00 | 0.00 | 0.00 | 52 | 1015.5 |
| 20260504021405 | 51 | 322 | 0.0 | 0.0 | 0.00 | 0.00 | 0.00 | 52 | 1015.5 |
| 20260504020902 | 51 | 324 | 0.0 | 0.0 | 0.00 | 0.00 | 0.00 | 52 | 1015.5 |
| 20260504020359 | 51 | 330 | 0.0 | 0.0 | 0.00 | 0.00 | 0.00 | 51 | 1015.4 |
| 20260504015855 | 52 | 329 | 0.0 | 0.0 | 0.00 | 0.00 | 0.00 | 51 | 1015.5 |
| 20260504015351 | 53 | 321 | 0.0 | 0.0 | 0.00 | 0.00 | 0.00 | 50 | 1015.5 |
| 20260504014847 | 53 | 317 | 0.0 | 0.0 | 0.00 | 0.00 | 0.00 | 50 | 1015.3 |
| 20260504014343 | 53 | 310 | 0.9 | 0.9 | 0.00 | 0.00 | 0.00 | 48 | 1015.5 |
| 20260504013841 | 53 | 308 | 0.0 | 0.9 | 0.00 | 0.00 | 0.00 | 48 | 1015.4 |
| 20260504013339 | 53 | 306 | 0.0 | 0.0 | 0.00 | 0.00 | 0.00 | 48 | 1015.4 |
| 20260504012835 | 54 | 279 | 0.9 | 0.9 | 0.00 | 0.00 | 0.00 | 47 | 1015.4 |
| 20260504012333 | 54 | 309 | 0.0 | 0.9 | 0.00 | 0.00 | 0.00 | 46 | 1015.3 |
| 20260504011830 | 54 | 318 | 0.0 | 0.0 | 0.00 | 0.00 | 0.00 | 46 | 1015.3 |
| 20260504011327 | 54 | 317 | 0.0 | 0.9 | 0.00 | 0.00 | 0.00 | 46 | 1015.1 |
| 20260504010823 | 54 | 310 | 0.9 | 0.9 | 0.00 | 0.00 | 0.00 | 45 | 1015.1 |
| 20260504010318 | 54 | 325 | 0.0 | 0.0 | 0.00 | 0.00 | 0.00 | 46 | 1015.3 |
| 20260504005815 | 54 | 320 | 0.0 | 0.0 | 0.00 | 0.00 | 0.00 | 45 | 1015.2 |
| 20260504005312 | 55 | 311 | 0.0 | 0.0 | 0.00 | 0.00 | 0.00 | 45 | 1015.0 |
| 20260504004810 | 55 | 320 | 0.0 | 0.0 | 0.00 | 0.00 | 0.00 | 45 | 1015.1 |
| 20260504004307 | 55 | 256 | 0.0 | 0.9 | 0.00 | 0.00 | 0.00 | 43 | 1015.0 |
| 20260504003803 | 56 | 322 | 0.0 | 0.0 | 0.00 | 0.00 | 0.00 | 43 | 1015.1 |
| 20260504003300 | 56 | 292 | 0.9 | 0.9 | 0.00 | 0.00 | 0.00 | 43 | 1015.1 |
| 20260504002757 | 56 | 267 | 0.9 | 0.9 | 0.00 | 0.00 | 0.00 | 44 | 1014.8 |
| 20260504002254 | 56 | 323 | 0.0 | 0.0 | 0.00 | 0.00 | 0.00 | 42 | 1015.0 |
| 20260504001752 | 57 | 317 | 0.0 | 0.9 | 0.00 | 0.00 | 0.00 | 42 | 1014.8 |
| 20260504001248 | 57 | 305 | 0.0 | 0.0 | 0.00 | 0.00 | 0.00 | 41 | 1014.7 |
| 20260504000745 | 57 | 274 | 0.9 | 1.7 | 0.00 | 0.00 | 0.00 | 41 | 1014.8 |
| 20260504000242 | 57 | 236 | 1.7 | 1.7 | 0.00 | 0.00 | 0.00 | 40 | 1014.7 |
| 20260503235740 | 58 | 266 | 2.6 | 4.3 | 0.00 | 0.00 | 0.00 | 40 | 1014.7 |
| 20260503235237 | 58 | 319 | 0.9 | 0.9 | 0.00 | 0.00 | 0.00 | 39 | 1014.7 |
| 20260503234735 | 59 | 308 | 0.9 | 1.7 | 0.00 | 0.00 | 0.00 | 39 | 1014.6 |
| 20260503234233 | 59 | 312 | 0.9 | 1.7 | 0.00 | 0.00 | 0.00 | 38 | 1014.7 |
| 20260503233730 | 59 | 257 | 0.9 | 2.6 | 0.00 | 0.00 | 0.00 | 39 | 1014.6 |
| 20260503233225 | 59 | 293 | 0.9 | 0.9 | 0.00 | 0.00 | 0.00 | 39 | 1014.3 |
| 20260503232722 | 59 | 305 | 0.9 | 0.9 | 0.00 | 0.00 | 0.00 | 38 | 1014.5 |
| 20260503232220 | 59 | 289 | 1.7 | 1.7 | 0.00 | 0.00 | 0.00 | 37 | 1014.4 |
| 20260503231718 | 59 | 296 | 0.9 | 0.9 | 0.00 | 0.00 | 0.00 | 37 | 1014.5 |
| 20260503231214 | 59 | 312 | 3.5 | 4.3 | 0.00 | 0.00 | 0.00 | 38 | 1014.4 |
| 20260503230710 | 60 | 255 | 0.9 | 0.9 | 0.00 | 0.00 | 0.00 | 38 | 1014.6 |
| 20260503230208 | 60 | 238 | 4.3 | 6.1 | 0.00 | 0.00 | 0.00 | 36 | 1014.5 |
| 20260503225705 | 60 | 217 | 1.7 | 2.6 | 0.00 | 0.00 | 0.00 | 37 | 1014.2 |
| 20260503225205 | 60 | 283 | 1.7 | 2.6 | 0.00 | 0.00 | 0.00 | 37 | 1014.3 |
| 20260503224703 | 60 | 318 | 0.9 | 1.7 | 0.00 | 0.00 | 0.00 | 37 | 1014.4 |
| 20260503224200 | 60 | 268 | 0.9 | 1.7 | 0.00 | 0.00 | 0.00 | 37 | 1014.4 |
| 20260503223658 | 60 | 297 | 0.9 | 0.9 | 0.00 | 0.00 | 0.00 | 37 | 1014.5 |
| 20260503223155 | 60 | 144 | 2.6 | 2.6 | 0.00 | 0.00 | 0.00 | 36 | 1014.4 |
| 20260503222652 | 60 | 262 | 2.6 | 6.1 | 0.00 | 0.00 | 0.00 | 36 | 1014.4 |
| 20260503222149 | 61 | 279 | 2.6 | 2.6 | 0.00 | 0.00 | 0.00 | 35 | 1014.5 |
| 20260503221648 | 61 | 324 | 4.3 | 7.0 | 0.00 | 0.00 | 0.00 | 34 | 1014.3 |
| 20260503221144 | 61 | 304 | 4.3 | 5.2 | 0.00 | 0.00 | 0.00 | 35 | 1014.2 |
| 20260503220641 | 61 | 293 | 1.7 | 1.7 | 0.00 | 0.00 | 0.00 | 36 | 1014.3 |
| 20260503220138 | 61 | 193 | 3.5 | 5.2 | 0.00 | 0.00 | 0.00 | 36 | 1014.3 |
| 20260503215635 | 62 | 249 | 6.1 | 7.0 | 0.00 | 0.00 | 0.00 | 34 | 1014.4 |
| 20260503215132 | 62 | 307 | 2.6 | 5.2 | 0.00 | 0.00 | 0.00 | 35 | 1014.5 |
| 20260503214630 | 62 | 323 | 2.6 | 4.3 | 0.00 | 0.00 | 0.00 | 34 | 1014.5 |
| 20260503214126 | 61 | 274 | 4.3 | 5.2 | 0.00 | 0.00 | 0.00 | 35 | 1014.3 |
| 20260503213626 | 62 | 266 | 2.6 | 4.3 | 0.00 | 0.00 | 0.00 | 34 | 1014.5 |
| 20260503213121 | 61 | 307 | 4.3 | 7.0 | 0.00 | 0.00 | 0.00 | 36 | 1014.2 |
| 20260503212619 | 61 | 253 | 4.3 | 6.1 | 0.00 | 0.00 | 0.00 | 35 | 1014.2 |
| 20260503212117 | 61 | 305 | 5.2 | 8.7 | 0.00 | 0.00 | 0.00 | 36 | 1014.4 |
| 20260503211614 | 62 | 320 | 2.6 | 4.3 | 0.00 | 0.00 | 0.00 | 35 | 1014.4 |
| 20260503211109 | 62 | 191 | 4.3 | 6.1 | 0.00 | 0.00 | 0.00 | 36 | 1014.4 |
| 20260503210606 | 62 | 295 | 5.2 | 6.1 | 0.00 | 0.00 | 0.00 | 36 | 1014.2 |
| 20260503205559 | 61 | 312 | 7.8 | 8.7 | 0.00 | 0.00 | 0.00 | 35 | 1014.4 |
| 20260503205055 | 61 | 239 | 4.3 | 6.1 | 0.00 | 0.00 | 0.00 | 36 | 1014.3 |
| 20260503204552 | 61 | 278 | 6.1 | 7.8 | 0.00 | 0.00 | 0.00 | 36 | 1014.3 |
| 20260503204049 | 61 | 309 | 4.3 | 6.1 | 0.00 | 0.00 | 0.00 | 36 | 1014.4 |
| 20260503203546 | 61 | 241 | 5.2 | 7.0 | 0.00 | 0.00 | 0.00 | 36 | 1014.5 |
| 20260503203043 | 61 | 296 | 4.3 | 7.0 | 0.00 | 0.00 | 0.00 | 37 | 1014.5 |
| 20260503202541 | 60 | 281 | 2.6 | 2.6 | 0.00 | 0.00 | 0.00 | 37 | 1014.4 |
| 20260503202039 | 60 | 357 | 2.6 | 5.2 | 0.00 | 0.00 | 0.00 | 36 | 1014.6 |
| 20260503201537 | 59 | 325 | 1.7 | 2.6 | 0.00 | 0.00 | 0.00 | 37 | 1014.5 |
| 20260503201034 | 59 | 259 | 4.3 | 6.1 | 0.00 | 0.00 | 0.00 | 38 | 1014.6 |
| 20260503200530 | 59 | 251 | 3.5 | 5.2 | 0.00 | 0.00 | 0.00 | 37 | 1014.7 |
| 20260503200027 | 59 | 333 | 6.1 | 7.0 | 0.00 | 0.00 | 0.00 | 36 | 1015.0 |
| 20260503195524 | 59 | 264 | 1.7 | 1.7 | 0.00 | 0.00 | 0.00 | 37 | 1014.7 |
| 20260503195021 | 59 | 301 | 6.1 | 8.7 | 0.00 | 0.00 | 0.00 | 36 | 1014.6 |
| 20260503194518 | 60 | 253 | 3.5 | 5.2 | 0.00 | 0.00 | 0.00 | 36 | 1014.7 |
| 20260503194017 | 58 | 322 | 4.3 | 6.1 | 0.00 | 0.00 | 0.00 | 37 | 1015.0 |
| 20260503193514 | 59 | 246 | 3.5 | 5.2 | 0.00 | 0.00 | 0.00 | 38 | 1014.9 |
| 20260503193010 | 60 | 260 | 3.5 | 5.2 | 0.00 | 0.00 | 0.00 | 37 | 1015.0 |
| 20260503192506 | 60 | 327 | 4.3 | 7.0 | 0.00 | 0.00 | 0.00 | 38 | 1014.9 |
| 20260503192001 | 59 | 295 | 1.7 | 2.6 | 0.00 | 0.00 | 0.00 | 37 | 1014.9 |
| 20260503191459 | 60 | 324 | 2.6 | 5.2 | 0.00 | 0.00 | 0.00 | 37 | 1015.1 |
| 20260503190955 | 61 | 271 | 2.6 | 2.6 | 0.00 | 0.00 | 0.00 | 35 | 1015.3 |
| 20260503190453 | 58 | 301 | 2.6 | 5.2 | 0.00 | 0.00 | 0.00 | 37 | 1015.3 |
| 20260503185950 | 60 | 273 | 7.8 | 13.9 | 0.00 | 0.00 | 0.00 | 36 | 1015.6 |
| 20260503185446 | 59 | 299 | 2.6 | 4.3 | 0.00 | 0.00 | 0.00 | 38 | 1015.4 |
| 20260503184946 | 58 | 318 | 6.1 | 8.7 | 0.00 | 0.00 | 0.00 | 35 | 1015.5 |
| 20260503184442 | 60 | 250 | 3.5 | 7.0 | 0.00 | 0.00 | 0.00 | 37 | 1015.7 |
| 20260503183938 | 59 | 287 | 4.3 | 6.1 | 0.00 | 0.00 | 0.00 | 36 | 1015.6 |
| 20260503183435 | 59 | 295 | 4.3 | 7.0 | 0.00 | 0.00 | 0.00 | 36 | 1015.7 |
| 20260503182932 | 59 | 283 | 7.0 | 12.2 | 0.00 | 0.00 | 0.00 | 36 | 1015.7 |
| 20260503182431 | 59 | 337 | 5.2 | 7.0 | 0.00 | 0.00 | 0.00 | 35 | 1015.5 |
| 20260503181928 | 58 | 267 | 4.3 | 7.0 | 0.00 | 0.00 | 0.00 | 37 | 1015.8 |
| 20260503181425 | 57 | 306 | 1.7 | 1.7 | 0.00 | 0.00 | 0.00 | 39 | 1015.8 |
| 20260503180921 | 58 | 306 | 4.3 | 6.1 | 0.00 | 0.00 | 0.00 | 37 | 1015.7 |
| 20260503180420 | 59 | 294 | 4.3 | 6.1 | 0.00 | 0.00 | 0.00 | 37 | 1015.9 |
| 20260503175916 | 59 | 289 | 4.3 | 5.2 | 0.00 | 0.00 | 0.00 | 36 | 1016.0 |
| 20260503175415 | 59 | 187 | 2.6 | 6.1 | 0.00 | 0.00 | 0.00 | 39 | 1015.7 |
| 20260503174910 | 59 | 251 | 3.5 | 4.3 | 0.00 | 0.00 | 0.00 | 36 | 1015.7 |
| 20260503174409 | 57 | 179 | 5.2 | 6.1 | 0.00 | 0.00 | 0.00 | 39 | 1015.9 |
| 20260503173908 | 57 | 261 | 4.3 | 5.2 | 0.00 | 0.00 | 0.00 | 37 | 1015.7 |
| 20260503173405 | 57 | 278 | 2.6 | 4.3 | 0.00 | 0.00 | 0.00 | 36 | 1015.9 |
| 20260503172902 | 57 | 285 | 4.3 | 6.1 | 0.00 | 0.00 | 0.00 | 39 | 1016.1 |
| 20260503172359 | 57 | 237 | 5.2 | 6.1 | 0.00 | 0.00 | 0.00 | 38 | 1016.1 |
| 20260503171855 | 55 | 290 | 5.2 | 7.8 | 0.00 | 0.00 | 0.00 | 38 | 1016.1 |
| 20260503171352 | 55 | 302 | 4.3 | 7.0 | 0.00 | 0.00 | 0.00 | 38 | 1016.4 |
| 20260503170850 | 56 | 325 | 1.7 | 2.6 | 0.00 | 0.00 | 0.00 | 40 | 1016.1 |
| 20260503170346 | 55 | 317 | 0.9 | 1.7 | 0.00 | 0.00 | 0.00 | 40 | 1016.4 |
| 20260503150738 | 52 | 290 | 0.9 | 1.7 | 0.00 | 0.00 | 0.00 | 46 | 1017.4 |
| 20260503150234 | 51 | 278 | 3.5 | 4.3 | 0.00 | 0.00 | 0.00 | 42 | 1017.3 |
| 20260503140159 | 49 | 298 | 5.2 | 7.8 | 0.00 | 0.00 | 0.00 | 42 | 1017.5 |
| 20260503131128 | 48 | 301 | 4.3 | 6.1 | 0.00 | 0.00 | 0.00 | 48 | 1017.7 |
| 20260503130626 | 47 | 345 | 2.6 | 4.3 | 0.00 | 0.00 | 0.00 | 50 | 1017.8 |
| 20260503130123 | 47 | 314 | 4.3 | 7.0 | 0.00 | 0.00 | 0.00 | 51 | 1017.7 |
| 20260503110516 | 42 | 336 | 1.7 | 1.7 | 0.00 | 0.00 | 0.00 | 64 | 1017.1 |